STARLINK-1283 (45389 NORAD) Tracking and Keplerian Element Data

This shows tracking and keplerian element data for the satellite.

Feedback or suggestion? Click here.




ElementValue
Catalog45389
NameSTARLINK-1283
Epoch Orbit1106
Epoch Day144.66667824
Epoch Year2020
RAAN287.3358
Inclination52.9958
Eccentricity0.0003632
Argument of Perigee12.7107
Mean Anonmoly308.3007
Mean Motion15.3452406
Decay Rate0.03007224
L11 45389U 20019AF 20144.66667824 .03007224 00000-0 77909-1 0 9998
L22 45389 52.9958 287.3358 0003632 12.7107 308.3007 15.34524060 11066

Live tracking and technical data element details for STARLINK-1283 (NORAD 45389). STARLINK-1283 can be tracked NOW for your location showing map with azimuth and elevation plus other details from your city location.

Track the satellite on the map from your city or location and see movement details for azimuth, elevation, latitude, longitude, range, height, and movement on the map or in text.







IsCatalogInMostPopularTable: catalog: 45389, numindb: 14
Update: records affected: 1



GetName: 45389 STARLINK-1283

Hit Count: updated at: Tue, 26 May 2020 02:05:35 GMT